Weather in Kuz'michi

Russia / Smolensk Oblast     53°32′55″N   32°34′45″E
temp.,
°C
wind,
m/s
gust,
m/s
humid.,
%
clouds,
%
prec.,
mm/h
press.,
hPa
HPBL,
m
23 september, thu
thu2300:00+4nnw2298100 0.7 1013627
03:00+4nnw2197100 0.8 1013617
06:00+5w2296100 0.5 1013486
09:00+5sw2289100 0.6 1013224
12:00+6sw2386100 0.2 1013468
15:00+6sw2383100 0.3 1012531
18:00+6sw2488100 0.1 1012291
21:00+5ssw2494100 0.1 1011209
24 september, fri
fri2400:00+4s479598 0.0 1009377
03:00+5s61194100 0.0 1005568
06:00+5sse81594100 0.1 1001643
09:00+6sse91695100 3.4 997843
12:00+7sse91695100 4.6 994855
15:00+10sw477752 6.1 994995
18:00+9ssw338354 0.7 99664
21:00+8ssw0193100 0.8 99810
25 september, sat
sat2500:00+8e1295100 0.2 100034
03:00+7n22947 0.2 100241
06:00+4wnw2294100 0.0 100432
09:00+7wsw3594100 0.0 1006220
12:00+9w369099 0.0 1007527
15:00+11wsw6884100 0.3 1008725
18:00+8sw4995100 0.5 1008392
21:00+9sw51398100 2.4 1008574
26 september, sun
sun2600:00+11w5109697 0.4 1008430
03:00+10wnw5994100 0.6 1010547
06:00+10nw5119272 0.3 1012463
09:00+10nnw698594 0.4 1014964
12:00+12nnw7106948 0.1 10161294
15:00+13nnw7106181 0.3 10171753
18:00+11nnw61168100 0.1 1019755
21:00+9nnw6127755 0.1 1020712
27 september, mon
mon2700:00+7nnw511915 0.0 1021357
03:00+6nnw4109634 0.0 1022314
06:00+6n389546 0.0 1023224
09:00+8nne568792 0.0 1024435
12:00+11nne4573100 0.0 1025675
15:00+11nne4472100 0.0 1025745
18:00+10nne3582100 0.0 1025215
21:00+9ne388999 0.4 1026216